QPF
0.00 0.00 0.00 0.00 0.00 0.00 0.00 0.00 0.00 0.00 0.00 0.00 0.00 0.00 0.00 0.00 0.00 0.00 0.00 0.00 0.00 0.00 0.00 0.00 0.00 0.00 0.00 0.00 0.00 0.00 0.00 0.00 0.00 0.00 0.00 0.00 0.00 0.00
0.00 0.00 0.00 0.00 0.00 0.00 0.00 0.00 0.00 0.00 0.00 0.00 0.00 0.00 0.00 0.00 0.00 0.00 0.00 0.00 0.00 0.00 0.00 0.00 0.00 0.00 0.00 0.00 0.00 0.00 0.00 0.00 0.00 0.00 0.00 0.00 0.00 0.00
0.00 0.00 0.00 0.00 0.00 0.00 0.00 0.00 0.00 0.00 0.00 0.00 0.00 0.00 0.00 0.00 0.00 0.00 0.00 0.00 0.00 0.00 0.00 0.00 0.00 0.00 0.00 0.00 0.00 0.00 0.00 0.00 0.00 0.00 0.00 0.00 0.00 0.00
0.00 0.00 0.00 0.00 0.00 0.00 0.00 0.00 0.00 0.00 0.00 0.00 0.00 0.00 0.00 0.00 0.00 0.00 0.00 0.00 0.00 0.00 0.00 0.00 0.00 0.00 0.00 0.00 0.00 0.00 0.00 0.00 0.00 0.00 0.00 0.00 0.00 0.00
0.00 0.00 0.00 0.00 0.00 0.00 0.00 0.00 0.00 0.00 0.00 0.00 0.00 0.00 0.00 0.00 0.00 0.00 0.00 0.00 0.00 0.00 0.00 0.00 0.00 0.00 0.00 0.00 0.00 0.00 0.00 0.00 0.00 0.00 0.00 0.00 0.00 0.00
0.00 0.00 0.00 0.00 0.00 0.00 0.00 0.00 0.00 0.00 0.00 0.00 0.00 0.00 0.00 0.00 0.00 0.00 0.00 0.00 0.00 0.00 0.00 0.00 0.00 0.00 0.00 0.00 0.00 0.00 0.00 0.00 0.00 0.00 0.00 0.00 0.00 0.00
0.00 0.00 0.00 0.00 0.00 0.00 0.00 0.00 0.00 0.00 0.00 0.00 0.00 0.00 0.00 0.00 0.00 0.00 0.00 0.00 0.00 0.00 0.00 0.00 0.00 0.00 0.00 0.00 0.00 0.00 0.00 0.00 0.00 0.00 0.00 0.00 0.00 0.00
0.00 0.00 0.00 0.00 0.00 0.00 0.00 0.00 0.00 0.00 0.00 0.00 0.00 0.00 0.00 0.00 0.00 0.00 0.00 0.00 0.00 0.00 0.00 0.00 0.00 0.00 0.00 0.00 0.00 0.00 0.00 0.00 0.00 0.00 0.00 0.00 0.00 0.00
0.00 0.00 0.00 0.00 0.00 0.00 0.00 0.00 0.00 0.00 0.00 0.00 0.00 0.00 0.00 0.00 0.00 0.00 0.00 0.00 0.00 0.00 0.00 0.00 0.00 0.00 0.00 0.00 0.00 0.00 0.00 0.00 0.00 0.00 0.00 0.00 0.00 0.00
0.00 0.00 0.00 0.00 0.00 0.00 0.00 0.00 0.00 0.00 0.00 0.00 0.00 0.00 0.00 0.00 0.00 0.00 0.00 0.00 0.00 0.00 0.00 0.00 0.00 0.00 0.00 0.00 0.00 0.00 0.00 0.00 0.00 0.00 0.00 0.00 0.00 0.00
0.00 0.00 0.00 0.00 0.00 0.00 0.00 0.00 0.00 0.00 0.00 0.00 0.00 0.00 0.00 0.00 0.00 0.00 0.00 0.00 0.00 0.00 0.00 0.00 0.00 0.00 0.00 0.00 0.00 0.00 0.00 0.00 0.00 0.00 0.00 0.00 0.00 0.00
0.00 0.00 0.00 0.00 0.00 0.00 0.00 0.00 0.00 0.00 0.00 0.00 0.00 0.00 0.00 0.00 0.00 0.00 0.00 0.00 0.00 0.00 0.00 0.00 0.00 0.00 0.00 0.00 0.00 0.00 0.00 0.00 0.00 0.00 0.00 0.00 0.00 0.00
0.00 0.00 0.00 0.00 0.00 0.00 0.00 0.00 0.00 0.00 0.00 0.00 0.00 0.00 0.00 0.00 0.00 0.00 0.00 0.00 0.00 0.00 0.00 0.00 0.00 0.00 0.00 0.00 0.00 0.00 0.00 0.00 0.00 0.00 0.00 0.00 0.00 0.00
0.00 0.00 0.00 0.00 0.00 0.00 0.00 0.00 0.00 0.00 0.00 0.00 0.00 0.00 0.00 0.00 0.00 0.00 0.00 0.00 0.00 0.00 0.00 0.00 0.00 0.00 0.00 0.00 0.00 0.00 0.00 0.00 0.00 0.00 0.00 0.00 0.00 0.00
0.00 0.00 0.00 0.00 0.00 0.00 0.00 0.00 0.00 0.00 0.00 0.00 0.00 0.00 0.00 0.00 0.00 0.00 0.00 0.00 0.00 0.00 0.00 0.00 0.00 0.00 0.00 0.00 0.00 0.00 0.00 0.00 0.00 0.00 0.00 0.00 0.00 0.00
0.00 0.00 0.00 0.00 0.00 0.00 0.00 0.00 0.00 0.00 0.00 0.00 0.00 0.00 0.00 0.00 0.00 0.00 0.00 0.00 0.00 0.00 0.00 0.00 0.00 0.00 0.00 0.00 0.00 0.00 0.00 0.00 0.00 0.00 0.00 0.00 0.00 0.00
0.00 0.00 0.00 0.00 0.00 0.00 0.00 0.00 0.00 0.00 0.00 0.00 0.00 0.00 0.00 0.00 0.00 0.00 0.00 0.00 0.00 0.00 0.00 0.00 0.00 0.00 0.00 0.00 0.00 0.00 0.00 0.00 0.00 0.00 0.00 0.00 0.00 0.00
0.00 0.00 0.00 0.00 0.00 0.00 0.00 0.00 0.00 0.00 0.00 0.00 0.00 0.00 0.00 0.00 0.00 0.00 0.00 0.00 0.00 0.00 0.00 0.00 0.00 0.00 0.00 0.00 0.00 0.00 0.00 0.00 0.00 0.00 0.00 0.00 0.00 0.00
0.00 0.00 0.00 0.00 0.00 0.00 0.00 0.00 0.00 0.00 0.00 0.00 0.00 0.00 0.00 0.00 0.00 0.01 0.00 0.00 0.00 0.00 0.00 0.00 0.00 0.00 0.00 0.00 0.00 0.00 0.00 0.00 0.00 0.00 0.00 0.00 0.00 0.00
0.00 0.00 0.00 0.00 0.00 0.00 0.00 0.00 0.00 0.00 0.00 0.00 0.00 0.00 0.00 0.00 0.00 0.00 0.00 0.00 0.00 0.00 0.00 0.00 0.00 0.00 0.00 0.00 0.00 0.00 0.00 0.00 0.00 0.00 0.00 0.00 0.00 0.00
0.00 0.00 0.00 0.00 0.00 0.00 0.00 0.00 0.00 0.00 0.00 0.00 0.00 0.00 0.00 0.00 0.00 0.00 0.00 0.00 0.00 0.00 0.00 0.00 0.00 0.00 0.00 0.00 0.00 0.00 0.00 0.00 0.00 0.00 0.00 0.00 0.00 0.00
0.00 0.00 0.00 0.00 0.00 0.00 0.00 0.00 0.00 0.00 0.00 0.00 0.00 0.00 0.00 0.00 0.00 0.00 0.00 0.00 0.00 0.00 0.00 0.00 0.00 0.00 0.00 0.00 0.00 0.00 0.00 0.00 0.00 0.00 0.00 0.00 0.00 0.00
0.00 0.00 0.00 0.00 0.00 0.00 0.00 0.00 0.00 0.00 0.00 0.00 0.00 0.00 0.00 0.00 0.00 0.00 0.00 0.00 0.00 0.00 0.00 0.00 0.00 0.00 0.00 0.00 0.00 0.00 0.00 0.00 0.00 0.00 0.00 0.00 0.00 0.00
MSLP
1015.34 1015.31 1015.34 1015.21 1015.10 1015.07 1015.18 1015.47 1015.88 1016.08 1015.68 1014.53 1014.05 1013.55 1013.61 1013.48 1013.33 1013.26 1013.20 1013.03 1012.82 1012.65 1012.46 1012.34 1012.28 1012.22 1012.09 1011.91 1011.69 1011.52 1011.42 1011.34 1011.15 1011.03 1010.89 1010.78 1010.70 1010.65
1015.03 1015.05 1015.01 1014.97 1014.94 1014.96 1014.99 1015.14 1015.38 1015.67 1015.72 1014.83 1014.39 1014.05 1013.74 1013.41 1013.19 1013.01 1012.96 1012.84 1012.64 1012.37 1012.09 1011.91 1011.85 1011.78 1011.68 1011.55 1011.38 1011.23 1011.13 1011.01 1010.87 1010.71 1010.54 1010.41 1010.35 1010.33
1014.87 1014.88 1014.79 1014.68 1014.74 1014.71 1014.77 1014.92 1015.14 1015.31 1015.36 1014.76 1014.49 1014.10 1013.77 1013.49 1013.14 1012.87 1012.68 1012.56 1012.47 1012.28 1012.05 1011.73 1011.60 1011.47 1011.24 1011.08 1010.96 1010.83 1010.72 1010.63 1010.56 1010.54 1010.50 1010.46 1010.37 1010.33
1014.80 1014.71 1014.64 1014.37 1014.47 1014.46 1014.54 1014.71 1014.76 1014.84 1014.98 1014.62 1014.47 1014.35 1014.11 1013.49 1012.97 1012.66 1012.41 1012.08 1012.08 1011.91 1011.70 1011.53 1011.41 1011.17 1010.83 1010.57 1010.42 1010.33 1010.34 1010.38 1010.38 1010.35 1010.31 1010.51 1010.53 1010.38
1014.58 1014.51 1014.44 1014.34 1014.33 1014.30 1014.25 1014.25 1014.27 1014.08 1014.24 1014.33 1014.03 1014.03 1013.81 1013.48 1013.13 1012.65 1012.15 1011.89 1011.66 1011.48 1011.34 1011.19 1011.07 1010.80 1010.53 1010.28 1010.05 1009.87 1009.91 1009.99 1010.07 1010.06 1010.04 1010.13 1010.24 1010.25
1014.29 1014.11 1013.97 1013.91 1013.91 1013.88 1013.88 1013.90 1013.88 1013.95 1014.12 1014.17 1013.93 1013.77 1013.57 1013.20 1012.93 1012.78 1012.43 1012.08 1011.67 1011.24 1011.08 1010.98 1010.69 1010.40 1010.12 1010.02 1009.86 1009.72 1009.64 1009.57 1009.60 1009.65 1009.66 1009.73 1009.84 1009.99
1013.99 1013.73 1013.55 1013.38 1013.32 1013.35 1013.47 1013.59 1013.62 1013.54 1013.60 1013.81 1013.74 1013.52 1013.17 1012.97 1012.88 1012.56 1012.35 1012.16 1011.89 1011.43 1010.87 1010.73 1010.63 1010.43 1010.11 1009.91 1009.81 1009.59 1009.42 1009.33 1009.33 1009.32 1009.19 1009.12 1009.38 1009.58
1013.96 1013.54 1013.25 1013.04 1012.86 1012.69 1012.76 1012.83 1013.12 1013.22 1013.21 1013.26 1013.23 1013.04 1012.69 1012.51 1012.36 1012.18 1012.13 1012.23 1012.05 1011.34 1011.39 1010.86 1010.65 1010.17 1009.96 1009.71 1009.46 1009.23 1009.07 1009.03 1008.96 1008.91 1008.74 1008.88 1009.08 1009.19
1013.60 1013.26 1013.00 1012.80 1012.60 1012.48 1012.33 1012.20 1012.22 1012.41 1012.36 1012.37 1012.50 1012.45 1012.27 1012.26 1012.25 1012.01 1011.91 1011.73 1011.59 1011.18 1011.41 1010.96 1010.58 1010.14 1009.70 1009.19 1009.09 1009.01 1008.88 1008.81 1008.74 1008.68 1008.55 1008.69 1008.83 1008.88
1012.97 1012.72 1012.63 1012.44 1012.29 1012.23 1012.07 1012.10 1011.96 1011.89 1011.85 1011.63 1011.54 1011.40 1011.41 1011.28 1011.59 1011.51 1011.36 1011.17 1010.84 1010.84 1011.02 1010.85 1010.26 1009.84 1009.33 1009.03 1008.72 1008.62 1008.57 1008.70 1008.64 1008.58 1008.57 1008.69 1008.61 1008.65
1012.42 1012.17 1011.98 1011.77 1011.60 1011.59 1011.54 1011.71 1011.45 1011.31 1011.11 1010.75 1010.59 1010.57 1010.52 1010.45 1010.52 1010.80 1010.83 1011.07 1010.48 1010.36 1010.32 1010.47 1009.96 1009.73 1009.30 1008.65 1008.38 1008.19 1008.29 1008.43 1008.51 1008.59 1008.56 1008.54 1008.59 1008.47
1012.01 1011.69 1011.41 1011.16 1011.03 1010.97 1011.16 1011.32 1011.17 1010.82 1010.79 1010.48 1010.30 1010.07 1009.99 1009.87 1009.92 1010.09 1010.22 1010.25 1010.41 1010.02 1009.48 1009.95 1009.86 1009.89 1009.53 1008.58 1008.28 1008.07 1008.14 1008.06 1008.14 1008.24 1008.31 1008.32 1008.31 1008.22
1011.58 1011.38 1010.96 1010.64 1010.39 1010.32 1010.38 1010.66 1010.54 1010.43 1010.29 1010.07 1009.94 1009.87 1009.64 1009.43 1009.45 1009.37 1009.31 1009.43 1009.39 1009.31 1009.25 1009.34 1009.73 1009.85 1009.86 1009.32 1008.69 1008.29 1008.16 1008.04 1008.10 1008.02 1007.96 1008.06 1008.05 1008.06
1010.81 1010.54 1010.31 1010.17 1009.94 1009.82 1009.80 1009.68 1009.51 1009.49 1009.45 1009.45 1009.34 1009.15 1009.07 1008.91 1008.69 1008.68 1008.57 1008.38 1008.14 1008.19 1008.39 1008.66 1009.03 1009.34 1009.49 1009.26 1009.03 1008.25 1007.98 1007.92 1007.97 1007.93 1007.93 1007.82 1007.83 1007.77
1009.86 1009.65 1009.51 1009.34 1009.20 1009.13 1009.09 1008.96 1008.87 1008.77 1008.78 1008.83 1008.65 1008.24 1008.01 1007.87 1007.84 1007.93 1007.92 1007.98 1007.84 1007.55 1007.42 1007.69 1008.10 1008.38 1008.56 1008.59 1008.41 1008.12 1008.05 1007.77 1007.58 1007.60 1007.68 1007.73 1007.56 1007.65
1009.28 1009.15 1008.95 1008.72 1008.45 1008.33 1008.33 1008.17 1008.04 1007.94 1007.97 1007.91 1007.72 1007.44 1007.24 1007.42 1007.39 1007.31 1007.42 1007.49 1007.52 1007.13 1007.05 1007.03 1007.11 1007.44 1007.43 1007.45 1007.62 1007.40 1007.62 1007.80 1007.10 1007.03 1007.09 1007.31 1007.34 1006.99
1008.94 1008.65 1008.42 1008.21 1008.00 1007.74 1007.54 1007.50 1007.22 1007.07 1007.00 1006.90 1006.91 1006.79 1006.70 1006.61 1006.56 1006.49 1006.43 1006.53 1006.55 1006.31 1006.06 1006.13 1006.21 1006.34 1006.47 1006.50 1006.45 1006.59 1006.67 1006.64 1006.56 1006.56 1006.60 1006.57 1006.49 1006.40
1008.16 1007.93 1007.71 1007.57 1007.41 1007.01 1006.74 1006.66 1006.57 1006.34 1006.19 1006.09 1006.03 1005.99 1005.88 1005.82 1005.84 1005.83 1005.77 1005.58 1005.38 1005.16 1005.00 1004.99 1005.25 1005.61 1005.71 1005.43 1005.57 1005.52 1005.56 1005.53 1005.60 1005.62 1005.74 1005.81 1005.67 1005.60
1007.37 1007.07 1006.86 1006.67 1006.39 1006.18 1006.09 1006.02 1005.78 1005.58 1005.49 1005.49 1005.36 1005.16 1005.03 1004.88 1004.89 1004.78 1004.62 1004.53 1004.18 1003.98 1003.78 1003.92 1004.14 1004.35 1004.52 1004.19 1003.94 1003.91 1004.37 1004.56 1004.78 1004.78 1004.92 1005.06 1005.05 1004.96
1006.78 1006.54 1006.26 1005.99 1005.67 1005.41 1005.26 1005.21 1005.13 1005.14 1005.08 1004.88 1004.61 1004.35 1004.15 1003.93 1003.86 1003.78 1003.65 1003.39 1003.05 1002.81 1002.70 1002.71 1002.91 1003.10 1003.13 1002.88 1003.41 1003.05 1003.08 1003.59 1003.80 1003.90 1004.12 1004.30 1004.20 1004.13
1005.97 1005.74 1005.55 1005.26 1004.95 1004.71 1004.50 1004.39 1004.32 1004.15 1004.06 1003.91 1003.61 1003.34 1003.04 1002.86 1002.70 1002.59 1002.39 1002.07 1001.85 1001.66 1001.38 1001.37 1001.25 1001.54 1002.06 1002.69 1002.84 1002.85 1002.70 1002.76 1002.98 1003.24 1003.59 1003.73 1003.75 1003.61
1005.32 1005.08 1004.69 1004.38 1004.12 1003.91 1003.72 1003.52 1003.35 1003.21 1003.01 1002.80 1002.55 1002.31 1002.02 1001.83 1001.55 1001.41 1001.33 1001.10 1000.75 1000.57 1000.34 1000.47 1000.79 1001.12 1001.56 1001.91 1002.11 1002.34 1002.49 1002.57 1002.63 1002.53 1002.75 1003.07 1003.33 1003.06
1004.25 1003.93 1003.59 1003.31 1003.13 1002.94 1002.73 1002.46 1002.23 1001.98 1001.82 1001.62 1001.43 1001.22 1000.97 1000.69 1000.51 1000.29 1000.34 1000.04 999.74 999.72 999.74 1000.04 1000.25 1000.49 1000.80 1001.25 1001.67 1001.91 1002.09 1002.25 1002.30 1002.37 1002.34 1002.31 1002.37 1002.41
Thickness
5548 5548 5548 5549 5550 5550 5550 5548 5545 5538 5539 5550 5554 5559 5558 5558 5560 5561 5563 5564 5565 5566 5568 5570 5570 5571 5573 5575 5578 5580 5582 5583 5585 5586 5587 5589 5591 5591
5546 5544 5543 5542 5541 5541 5540 5538 5536 5534 5538 5537 5540 5543 5546 5547 5548 5550 5552 5553 5555 5557 5559 5561 5561 5562 5564 5566 5568 5572 5574 5576 5577 5579 5581 5584 5586 5586
5541 5539 5538 5537 5534 5533 5531 5529 5527 5525 5524 5529 5528 5528 5531 5533 5537 5539 5540 5542 5543 5544 5546 5549 5551 5553 5555 5557 5560 5562 5564 5567 5569 5570 5572 5574 5576 5578
5532 5531 5530 5531 5528 5525 5523 5520 5518 5516 5513 5516 5516 5515 5515 5519 5523 5525 5528 5530 5531 5532 5535 5537 5539 5541 5545 5548 5551 5553 5554 5556 5558 5560 5562 5563 5564 5567
5522 5521 5519 5519 5517 5515 5514 5511 5509 5509 5506 5503 5504 5502 5501 5502 5506 5510 5513 5514 5516 5518 5520 5522 5524 5528 5532 5536 5539 5542 5544 5545 5546 5548 5550 5552 5553 5555
5510 5509 5508 5507 5505 5504 5502 5500 5498 5493 5489 5486 5487 5486 5486 5487 5489 5489 5493 5496 5497 5501 5503 5505 5508 5512 5516 5520 5524 5527 5530 5533 5534 5535 5538 5540 5541 5543
5497 5497 5496 5495 5494 5492 5490 5485 5483 5480 5476 5472 5471 5470 5470 5470 5470 5472 5474 5476 5478 5484 5487 5488 5492 5493 5498 5502 5505 5509 5513 5516 5519 5521 5524 5528 5529 5529
5480 5480 5480 5479 5478 5478 5475 5473 5467 5462 5459 5457 5456 5454 5452 5452 5455 5458 5457 5455 5459 5464 5467 5471 5474 5478 5482 5485 5489 5493 5497 5501 5503 5507 5511 5512 5514 5515
5463 5463 5462 5460 5459 5457 5457 5455 5452 5447 5444 5442 5440 5436 5438 5431 5433 5436 5438 5442 5442 5446 5447 5455 5455 5463 5468 5473 5475 5477 5480 5484 5488 5491 5495 5497 5499 5501
5447 5447 5444 5441 5438 5437 5437 5433 5430 5426 5421 5424 5425 5423 5421 5419 5415 5417 5421 5424 5428 5428 5425 5437 5437 5444 5450 5457 5462 5464 5466 5468 5471 5475 5478 5480 5483 5486
5429 5428 5426 5424 5420 5418 5418 5412 5413 5408 5404 5406 5407 5405 5403 5402 5400 5399 5401 5400 5412 5413 5411 5413 5423 5425 5430 5437 5444 5448 5449 5451 5454 5456 5460 5463 5466 5471
5409 5408 5406 5404 5402 5400 5394 5391 5392 5389 5383 5384 5384 5384 5383 5383 5381 5379 5381 5384 5384 5393 5399 5393 5398 5401 5407 5419 5423 5427 5429 5433 5437 5439 5442 5447 5450 5455
5389 5388 5385 5384 5383 5381 5376 5370 5368 5366 5364 5363 5363 5361 5362 5362 5361 5361 5363 5364 5368 5373 5376 5376 5376 5377 5379 5390 5400 5404 5409 5413 5417 5422 5426 5429 5432 5436
5369 5369 5367 5365 5363 5360 5356 5352 5349 5343 5342 5341 5339 5343 5341 5342 5341 5341 5344 5347 5350 5355 5356 5358 5361 5362 5360 5364 5376 5384 5388 5394 5398 5402 5405 5410 5414 5419
5350 5349 5348 5347 5343 5339 5335 5330 5324 5320 5317 5315 5318 5323 5323 5322 5322 5320 5321 5323 5327 5334 5338 5339 5341 5344 5346 5348 5354 5362 5366 5372 5380 5384 5387 5391 5397 5400
5327 5327 5327 5324 5321 5316 5309 5306 5302 5298 5294 5295 5296 5299 5300 5297 5300 5300 5301 5301 5302 5312 5316 5318 5321 5322 5330 5336 5340 5351 5349 5350 5360 5364 5369 5374 5379 5385
5302 5303 5301 5297 5294 5292 5288 5285 5283 5281 5277 5276 5273 5276 5277 5278 5281 5279 5282 5283 5284 5291 5299 5301 5301 5303 5307 5314 5324 5331 5335 5339 5342 5347 5351 5358 5364 5368
5280 5280 5280 5276 5273 5273 5271 5268 5265 5264 5262 5260 5259 5258 5261 5261 5260 5261 5264 5266 5270 5276 5281 5284 5285 5283 5284 5296 5303 5311 5316 5322 5325 5331 5337 5343 5348 5352
5261 5262 5263 5262 5261 5258 5255 5251 5252 5251 5247 5244 5245 5248 5247 5247 5249 5252 5254 5254 5258 5262 5267 5267 5269 5270 5272 5282 5287 5293 5298 5303 5307 5314 5320 5326 5331 5335
5245 5246 5247 5247 5247 5247 5244 5239 5235 5233 5231 5232 5234 5235 5237 5238 5239 5241 5242 5246 5249 5253 5255 5256 5257 5259 5262 5270 5267 5276 5283 5285 5291 5299 5304 5309 5316 5321
5239 5238 5237 5236 5236 5235 5234 5231 5229 5228 5226 5225 5226 5229 5232 5232 5233 5234 5237 5242 5244 5246 5250 5252 5254 5254 5254 5251 5258 5260 5265 5272 5277 5282 5284 5292 5299 5305
5227 5227 5229 5229 5228 5225 5225 5224 5222 5221 5221 5221 5222 5225 5228 5228 5230 5231 5232 5236 5239 5243 5247 5247 5245 5245 5245 5246 5249 5247 5253 5258 5264 5271 5276 5279 5278 5290
5222 5222 5223 5222 5221 5219 5218 5219 5218 5220 5220 5221 5222 5224 5225 5228 5229 5231 5231 5236 5239 5241 5242 5241 5242 5242 5243 5242 5244 5245 5248 5251 5255 5260 5265 5270 5275 5279